FW3157 Thessaloniki GR current weather conditions

sailwx.info

Wind from 253 at 2 knots gusting 6

Air temperature 12.2° C
Dewpoint 6.9° C

Last reported at 2019-Dec-11 02:04 UTC.
Time now 2019-Dec-11 02:31 UTC

Location: N 40°35' E 022°57'.
View on Google Maps.

See reports from other nearby stations

  
Tides and Currents Weather Stations Pressure Air Temp Water Temp Dewpoint Dewpoint Depression Visibility Wind Speed Wind Dir Waves Ship Positions
date/time (UTC)wind fromknots sea level pressurealtimeterstation pressurevisibilityair tempwater tempwave heightnotes
2019-Dec-11 02:04 253 2 gusting 6 12.2
2019-Dec-11 01:59 228 3 gusting 9 12.2
2019-Dec-11 01:54 281 5 gusting 9 12.2
2019-Dec-11 01:49 293 3 gusting 8 12.2
2019-Dec-11 01:44 202 1 gusting 6 12.2
2019-Dec-11 01:39 352 2 gusting 9 12.2
2019-Dec-11 01:34 238 3 gusting 9 12.2
2019-Dec-11 01:29 314 4 gusting 9 12.2
2019-Dec-11 01:24 342 5 gusting 17 12.2
2019-Dec-11 01:19 119 2 gusting 17 12.2
2019-Dec-11 01:14 015 1 gusting 17 11.7
2019-Dec-11 01:09 209 2 gusting 7 11.7
2019-Dec-11 01:04 333 2 gusting 7 11.7
2019-Dec-11 00:59 042 2 gusting 7 11.7
2019-Dec-11 00:54 311 3 gusting 6 11.7
2019-Dec-11 00:49 331 3 gusting 8 11.7
2019-Dec-11 00:44 064 4 gusting 13 11.7
2019-Dec-11 00:39 018 4 gusting 14 11.7
2019-Dec-11 00:34 273 2 gusting 14 11.7
2019-Dec-11 00:29 105 3 gusting 10 11.7
2019-Dec-11 00:24 040 4 gusting 6 11.7
2019-Dec-11 00:19 311 3 gusting 7 11.7
2019-Dec-11 00:14 314 3 gusting 10 11.7
2019-Dec-11 00:09 296 4 gusting 13 12.2
2019-Dec-11 00:04 023 4 gusting 13 12.2
2019-Dec-10 23:59 311 2 gusting 11 12.2
2019-Dec-10 23:54 020 2 gusting 11 12.2
2019-Dec-10 23:49 039 2 gusting 8 12.2
2019-Dec-10 23:44 038 2 gusting 6 12.2
2019-Dec-10 23:39 072 1 gusting 6 12.2
2019-Dec-10 23:34 158 1 gusting 5 12.2
2019-Dec-10 23:29 039 1 gusting 6 12.2
2019-Dec-10 23:24 033 0 gusting 6 11.7
2019-Dec-10 23:19 013 0 gusting 5 11.7
2019-Dec-10 23:14 347 0 gusting 5 11.7
2019-Dec-10 23:09 035 0 gusting 5 11.7
2019-Dec-10 23:04 047 0 gusting 4 11.7
2019-Dec-10 22:59 352 11.7
2019-Dec-10 22:54 237 0 gusting 5 11.7
2019-Dec-10 22:49 006 2 gusting 11 11.7
2019-Dec-10 22:44 261 3 gusting 11 11.7
2019-Dec-10 22:39 111 2 gusting 9 11.7
2019-Dec-10 22:34 030 2 gusting 8 11.7
2019-Dec-10 22:29 079 2 gusting 8 11.7
2019-Dec-10 22:24 106 2 gusting 8 11.7
2019-Dec-10 22:19 063 3 gusting 8 11.7
2019-Dec-10 22:14 290 4 gusting 8 11.7
2019-Dec-10 22:09 281 2 gusting 8 11.7
2019-Dec-10 22:04 235 1 gusting 6 11.7
2019-Dec-10 21:59 280 1 gusting 6 11.7
2019-Dec-10 21:54 158 2 gusting 6 11.7
2019-Dec-10 21:49 043 2 gusting 10 11.7
2019-Dec-10 21:44 018 2 gusting 10 11.7
2019-Dec-10 21:39 218 5 gusting 13 11.7
2019-Dec-10 21:34 124 6 gusting 18 11.7
2019-Dec-10 21:29 059 7 gusting 18 11.7
2019-Dec-10 21:24 050 6 gusting 16 11.1
2019-Dec-10 21:19 110 6 gusting 16 11.1
2019-Dec-10 21:14 105 7 gusting 19 11.1
2019-Dec-10 21:09 082 8 gusting 19 11.1
2019-Dec-10 21:04 071 9 gusting 19 11.1
2019-Dec-10 20:59 036 9 gusting 21 11.1
2019-Dec-10 20:54 071 9 gusting 21 11.1
2019-Dec-10 20:49 064 8 gusting 21 11.1
2019-Dec-10 20:44 075 9 gusting 21 11.1
2019-Dec-10 20:39 101 9 gusting 19 11.1
2019-Dec-10 20:34 037 9 gusting 19 11.1
2019-Dec-10 20:29 070 9 gusting 19 11.1
2019-Dec-10 20:24 084 8 gusting 19 11.1
2019-Dec-10 20:19 060 7 gusting 19 11.1
2019-Dec-10 20:14 083 7 gusting 19 11.1
2019-Dec-10 20:09 005 7 gusting 19 11.1
2019-Dec-10 20:04 041 8 gusting 19 11.1
2019-Dec-10 19:59 105 8 gusting 19 11.1
2019-Dec-10 19:54 089 7 gusting 16 11.1
2019-Dec-10 19:49 102 7 gusting 15 11.1
2019-Dec-10 19:44 105 8 gusting 17 11.7
2019-Dec-10 19:39 089 10 gusting 21 11.7
2019-Dec-10 19:34 106 10 gusting 21 11.7
2019-Dec-10 19:29 089 9 gusting 20 11.7
2019-Dec-10 19:24 065 8 gusting 20 11.7
2019-Dec-10 19:19 073 9 gusting 20 11.7
2019-Dec-10 19:14 067 8 gusting 20 11.7
2019-Dec-10 19:09 072 10 gusting 21 11.1
2019-Dec-10 19:04 070 11 gusting 23 11.7
2019-Dec-10 18:59 099 9 gusting 23 11.1
2019-Dec-10 18:54 060 9 gusting 20 11.1
2019-Dec-10 18:49 085 9 gusting 21 11.1
2019-Dec-10 18:44 067 9 gusting 21 11.1
2019-Dec-10 18:39 082 9 gusting 21 11.1
2019-Dec-10 18:34 091 8 gusting 19 11.1
2019-Dec-10 18:29 352 9 gusting 19 11.7
2019-Dec-10 18:24 088 10 gusting 22 11.7
2019-Dec-10 18:19 089 9 gusting 22 11.7
2019-Dec-10 18:14 243 10 gusting 22 11.7
2019-Dec-10 18:09 041 10 gusting 22 11.7
2019-Dec-10 18:04 108 9 gusting 22 11.7
2019-Dec-10 17:59 101 9 gusting 19 11.7
2019-Dec-10 17:54 102 10 gusting 19 11.7
2019-Dec-10 17:49 117 8 gusting 19 11.7
2019-Dec-10 17:44 092 6 gusting 19 11.7
2019-Dec-10 17:39 108 5 gusting 14 11.7
2019-Dec-10 17:34 101 5 gusting 14 11.7
2019-Dec-10 17:29 097 6 gusting 13 11.7
2019-Dec-10 17:24 104 5 gusting 13 11.7
2019-Dec-10 17:19 101 6 gusting 16 11.7
2019-Dec-10 17:14 093 6 gusting 16 11.7
2019-Dec-10 17:09 102 5 gusting 13 11.7
2019-Dec-10 17:04 071 5 gusting 14 11.7
2019-Dec-10 16:59 085 4 gusting 14 11.7
2019-Dec-10 16:54 107 4 gusting 11 11.7
2019-Dec-10 16:49 121 4 gusting 11 11.7
2019-Dec-10 16:44 069 4 gusting 10 11.7
2019-Dec-10 16:39 025 2 gusting 10 11.7
2019-Dec-10 16:34 111 0 gusting 7 11.7
2019-Dec-10 16:29 219 0 gusting 5 11.7
2019-Dec-10 16:24 133 1 gusting 5 11.7
2019-Dec-10 16:19 086 2 gusting 6 11.7
2019-Dec-10 16:14 105 3 gusting 7 11.7
2019-Dec-10 16:09 112 3 gusting 7 11.7
2019-Dec-10 16:04 041 2 gusting 6 11.7
2019-Dec-10 15:59 050 2 gusting 6 11.7
2019-Dec-10 15:54 077 2 gusting 7 11.7
2019-Dec-10 15:49 037 2 gusting 7 11.7
2019-Dec-10 15:44 122 2 gusting 7 11.7
2019-Dec-10 15:39 067 2 gusting 8 11.7
2019-Dec-10 15:33 167 4 gusting 10 11.7
2019-Dec-10 15:28 125 4 gusting 10 11.7
2019-Dec-10 15:24 070 4 gusting 10 11.7
2019-Dec-10 15:18 077 4 gusting 10 11.7
2019-Dec-10 15:13 109 4 gusting 10 11.7
2019-Dec-10 15:08 109 2 gusting 10 11.7
2019-Dec-10 15:03 075 2 gusting 7 11.7
2019-Dec-10 14:58 059 2 gusting 7 11.7
2019-Dec-10 14:53 062 3 gusting 6 11.7
2019-Dec-10 14:48 087 2 gusting 8 12.2
2019-Dec-10 14:43 120 2 gusting 8 12.2
2019-Dec-10 14:38 086 2 gusting 9 12.2
2019-Dec-10 14:33 064 2 gusting 9 12.2
2019-Dec-10 14:28 058 2 gusting 8 12.2
2019-Dec-10 14:23 074 2 gusting 8 12.2
2019-Dec-10 14:18 070 3 gusting 6 12.2
2019-Dec-10 14:14 113 4 gusting 8 12.2
2019-Dec-10 14:08 093 3 gusting 9 12.2
2019-Dec-10 14:03 103 2 gusting 9 12.2
2019-Dec-10 13:58 106 1 gusting 6 12.2
2019-Dec-10 13:53 096 2 gusting 6 12.2
2019-Dec-10 13:48 112 2 gusting 6 12.8
2019-Dec-10 13:43 067 2 gusting 6 12.8
2019-Dec-10 13:38 071 3 gusting 8 12.8
2019-Dec-10 13:33 128 3 gusting 8 12.8
2019-Dec-10 13:28 080 3 gusting 8 12.8
2019-Dec-10 13:23 084 2 gusting 8 12.8
2019-Dec-10 13:18 089 2 gusting 8 12.8
2019-Dec-10 13:13 098 3 gusting 8 12.8
2019-Dec-10 13:08 069 2 gusting 6 12.8
2019-Dec-10 13:03 100 2 gusting 6 12.8
2019-Dec-10 12:58 085 2 gusting 6 12.8
2019-Dec-10 12:53 067 2 gusting 6 12.8
2019-Dec-10 12:48 099 2 gusting 5 12.8
2019-Dec-10 12:43 078 2 gusting 4 12.8
2019-Dec-10 12:38 055 1 gusting 5 12.8
2019-Dec-10 12:33 094 1 gusting 6 12.8
2019-Dec-10 12:28 061 1 gusting 6 12.8
2019-Dec-10 12:23 028 1 gusting 3 12.8
2019-Dec-10 12:18 037 0 gusting 3 12.8
2019-Dec-10 12:13 047 0 gusting 2 12.8
2019-Dec-10 12:08 309 12.2
2019-Dec-10 12:03 299 12.2
2019-Dec-10 11:58 299 12.2
2019-Dec-10 11:53 299 12.2
2019-Dec-10 11:48 299 12.2
2019-Dec-10 11:43 299 11.7
2019-Dec-10 11:38 294 0 gusting 1 11.7
2019-Dec-10 11:33 280 0 gusting 1 11.7
2019-Dec-10 11:28 302 0 gusting 2 11.7
2019-Dec-10 11:23 274 0 gusting 2 11.7
2019-Dec-10 11:18 288 0 gusting 1 11.7
2019-Dec-10 11:13 288 0 gusting 1 11.7
2019-Dec-10 11:08 284 0 gusting 1 11.7
2019-Dec-10 11:03 270 11.7
2019-Dec-10 10:58 286 0 gusting 1 11.7
2019-Dec-10 10:53 290 0 gusting 1 11.7
2019-Dec-10 10:48 283 11.7
2019-Dec-10 10:43 265 11.7
2019-Dec-10 10:38 248 0 gusting 1 11.1
2019-Dec-10 10:33 270 11.7
2019-Dec-10 10:28 233 11.7
2019-Dec-10 10:23 167 11.7
2019-Dec-10 10:18 167 11.1
2019-Dec-10 10:13 167 11.1
2019-Dec-10 10:08 168 11.1
2019-Dec-10 10:03 162 11.1
2019-Dec-10 09:58 164 11.1
2019-Dec-10 09:53 191 11.1
2019-Dec-10 09:48 129 0 gusting 3 11.1
2019-Dec-10 09:43 181 1 gusting 4 11.1
2019-Dec-10 09:38 197 0 gusting 4 11.1
2019-Dec-10 09:33 125 0 gusting 2 11.1
2019-Dec-10 09:28 165 0 gusting 2 11.1
2019-Dec-10 09:23 228 0 gusting 2 11.1
2019-Dec-10 09:18 231 11.1
2019-Dec-10 09:13 265 11.1
2019-Dec-10 09:08 148 11.1
2019-Dec-10 09:03 234 0 gusting 1 10.6
2019-Dec-10 08:58 252 0 gusting 1 10.6
2019-Dec-10 08:53 285 0 gusting 1 10.6
2019-Dec-10 08:48 276 0 gusting 1 10.6
2019-Dec-10 08:43 257 10.6
2019-Dec-10 08:38 248 10.6
2019-Dec-10 08:33 248 10.6
2019-Dec-10 08:28 248 10.6
2019-Dec-10 08:23 248 10.6
2019-Dec-10 08:18 248 10.6
2019-Dec-10 08:13 248 10.6
2019-Dec-10 08:08 248 10.0
2019-Dec-10 08:03 252 1 gusting 2 10.0
2019-Dec-10 07:58 236 1 gusting 2 10.0
2019-Dec-10 07:53 266 0 gusting 2 10.6
2019-Dec-10 07:48 240 0 gusting 2 10.6
2019-Dec-10 07:43 283 0 gusting 2 10.6
2019-Dec-10 07:38 268 0 gusting 1 10.6
2019-Dec-10 07:33 276 0 gusting 1 10.6
2019-Dec-10 07:28 290 0 gusting 1 10.6
2019-Dec-10 07:23 295 0 gusting 1 10.6
2019-Dec-10 07:18 294 10.6
2019-Dec-10 07:13 288 10.0
2019-Dec-10 07:08 274 10.0
2019-Dec-10 07:03 046 0 gusting 1 10.0
2019-Dec-10 06:58 044 0 gusting 1 10.0
2019-Dec-10 06:53 094 10.0
2019-Dec-10 06:48 094 10.0
2019-Dec-10 06:43 094 10.0
2019-Dec-10 06:38 140 10.0
2019-Dec-10 06:33 230 10.0
2019-Dec-10 06:28 230 10.0
2019-Dec-10 06:23 230 10.0
2019-Dec-10 06:18 105 10.0
2019-Dec-10 06:13 105 10.0
2019-Dec-10 06:08 105 10.0
2019-Dec-10 06:03 105 10.0
2019-Dec-10 05:58 105 10.0
2019-Dec-10 05:53 105 0 gusting 1 10.0
2019-Dec-10 05:48 105 0 gusting 1 9.4
2019-Dec-10 05:43 093 0 gusting 1 9.4
2019-Dec-10 05:38 115 0 gusting 1 9.4
2019-Dec-10 05:33 091 9.4
2019-Dec-10 05:28 128 9.4
2019-Dec-10 05:23 248 0 gusting 1 9.4
2019-Dec-10 05:18 201 9.4
2019-Dec-10 05:13 153 9.4
2019-Dec-10 05:08 153 9.4
2019-Dec-10 05:03 125 9.4
2019-Dec-10 04:58 109 9.4
2019-Dec-10 04:53 109 9.4
2019-Dec-10 04:48 112 0 gusting 1 9.4
2019-Dec-10 04:43 112 0 gusting 1 9.4
2019-Dec-10 04:38 103 9.4
2019-Dec-10 04:33 273 9.4
2019-Dec-10 04:28 273 0 gusting 2 9.4
2019-Dec-10 04:23 267 0 gusting 2 9.4
2019-Dec-10 04:18 221 0 gusting 2 9.4
2019-Dec-10 04:13 223 0 gusting 1 9.4
2019-Dec-10 04:08 224 9.4
2019-Dec-10 04:03 224 10.0
2019-Dec-10 03:58 252 10.0
2019-Dec-10 03:53 252 10.0
2019-Dec-10 03:48 238 10.0
2019-Dec-10 03:43 223 10.0
2019-Dec-10 03:38 260 0 gusting 2 10.0
2019-Dec-10 03:33 219 0 gusting 2 10.0
2019-Dec-10 03:28 240 1 gusting 2 10.0
2019-Dec-10 03:23 284 1 gusting 2 10.0
2019-Dec-10 03:18 261 0 gusting 2 10.0
2019-Dec-10 03:13 276 0 gusting 2 10.0
2019-Dec-10 03:08 273 0 gusting 2 10.0
2019-Dec-10 03:03 271 0 gusting 1 10.0
2019-Dec-10 02:58 274 0 gusting 1 10.0
2019-Dec-10 02:53 302 10.0
2019-Dec-10 02:48 302 9.4
2019-Dec-10 02:43 003 9.4
2019-Dec-10 02:38 104 9.4
2019-Dec-10 02:33 104 9.4
2019-Dec-10 02:28 104 10.0
2019-Dec-10 02:23 104 0 gusting 1 10.0
2019-Dec-10 02:18 104 0 gusting 1 10.0
2019-Dec-10 02:13 106 10.0
2019-Dec-10 02:08 106 0 gusting 1 10.0
2019-Dec-10 02:03 106 0 gusting 1 10.0
2019-Dec-10 01:58 110 10.0
2019-Dec-10 01:53 154 10.0
2019-Dec-10 01:48 191 10.0
2019-Dec-10 01:43 166 10.0
2019-Dec-10 01:38 178 0 gusting 2 10.0
2019-Dec-10 01:33 162 9.4
2019-Dec-10 01:28 162 9.4
2019-Dec-10 01:23 103 9.4
2019-Dec-10 01:18 099 9.4
2019-Dec-10 01:13 099 9.4
2019-Dec-10 01:08 096 0 gusting 1 9.4
2019-Dec-10 01:03 092 0 gusting 1 9.4
2019-Dec-10 00:58 081 0 gusting 2 9.4
2019-Dec-10 00:53 094 0 gusting 2 10.0
2019-Dec-10 00:48 097 10.0
2019-Dec-10 00:43 096 9.4
2019-Dec-10 00:38 097 9.4
2019-Dec-10 00:33 097 9.4
2019-Dec-10 00:28 097 9.4
2019-Dec-10 00:23 097 9.4
2019-Dec-10 00:18 097 9.4
2019-Dec-10 00:13 097 9.4
2019-Dec-10 00:08 097 9.4
2019-Dec-10 00:03 097 9.4
2019-Dec-09 23:58 097 9.4
2019-Dec-09 23:53 096 9.4
2019-Dec-09 23:48 096 9.4
2019-Dec-09 23:43 100 9.4
2019-Dec-09 23:38 101 10.0
2019-Dec-09 23:33 101 0 gusting 1 10.0
2019-Dec-09 23:28 113 0 gusting 1 10.0
2019-Dec-09 23:23 101 10.0
2019-Dec-09 23:18 101 10.0
2019-Dec-09 23:13 101 0 gusting 0 10.0
2019-Dec-09 23:08 107 10.0
2019-Dec-09 23:03 123 10.0
2019-Dec-09 22:58 123 10.0
2019-Dec-09 22:52 138 10.0
2019-Dec-09 22:47 208 10.0
2019-Dec-09 22:42 115 10.0
2019-Dec-09 22:37 111 0 gusting 2 10.0
2019-Dec-09 22:32 119 1 gusting 2 10.0
2019-Dec-09 22:27 110 1 gusting 3 10.0
2019-Dec-09 22:22 117 0 gusting 3 10.0
2019-Dec-09 22:17 108 0 gusting 1 10.0
2019-Dec-09 22:12 117 0 gusting 2 10.6
2019-Dec-09 22:07 094 1 gusting 3 10.6
2019-Dec-09 22:02 096 1 gusting 3 10.6
2019-Dec-09 21:57 122 0 gusting 2 10.6
2019-Dec-09 21:52 195 10.6
2019-Dec-09 21:47 158 10.6
2019-Dec-09 21:42 156 10.6
2019-Dec-09 21:37 094 10.6
2019-Dec-09 21:32 094 10.6
2019-Dec-09 21:27 094 10.6
2019-Dec-09 21:22 094 10.6
2019-Dec-09 21:17 094 10.6
2019-Dec-09 21:12 094 10.6
2019-Dec-09 21:07 094 10.6
2019-Dec-09 21:02 095 10.6
2019-Dec-09 20:57 094 10.6
2019-Dec-09 20:52 095 0 gusting 1 10.6
2019-Dec-09 20:47 100 10.6
2019-Dec-09 20:42 117 10.6
2019-Dec-09 20:37 117 0 gusting 2 10.6
2019-Dec-09 20:32 105 1 gusting 2 10.6
2019-Dec-09 20:27 105 0 gusting 1 10.6
2019-Dec-09 20:22 105 10.6
2019-Dec-09 20:17 105 10.6
2019-Dec-09 20:12 105 0 gusting 2 11.1
2019-Dec-09 20:07 107 0 gusting 2 11.1
2019-Dec-09 20:02 098 0 gusting 1 11.1
2019-Dec-09 19:57 107 0 gusting 1 11.1
2019-Dec-09 19:52 110 0 gusting 1 11.1
2019-Dec-09 19:47 162 11.1
2019-Dec-09 19:42 134 0 gusting 4 11.1
2019-Dec-09 19:37 123 1 gusting 4 11.1
2019-Dec-09 19:32 117 1 gusting 4 11.7
2019-Dec-09 19:27 108 1 gusting 4 11.7
2019-Dec-09 19:22 107 0 gusting 2 11.7
2019-Dec-09 19:17 108 0 gusting 2 11.7
2019-Dec-09 19:12 117 11.7
2019-Dec-09 19:07 117 11.7
2019-Dec-09 19:02 124 0 gusting 1 11.7
2019-Dec-09 18:57 105 0 gusting 1 11.7
2019-Dec-09 18:52 108 0 gusting 2 11.7
2019-Dec-09 18:47 108 0 gusting 2 11.7
2019-Dec-09 18:42 113 0 gusting 2 11.7
2019-Dec-09 18:37 086 1 gusting 3 11.7
2019-Dec-09 18:32 095 1 gusting 3 11.7
2019-Dec-09 18:27 117 1 gusting 2 12.2
2019-Dec-09 18:22 110 0 gusting 2 12.2
2019-Dec-09 18:17 100 12.2
2019-Dec-09 18:12 144 0 gusting 3 12.2
2019-Dec-09 18:07 120 1 gusting 3 12.2
2019-Dec-09 18:02 104 2 gusting 5 12.2
2019-Dec-09 17:57 099 2 gusting 5 12.2
2019-Dec-09 17:52 111 2 gusting 5 12.2
2019-Dec-09 17:47 120 2 gusting 5 12.2
2019-Dec-09 17:42 111 2 gusting 5 12.2
2019-Dec-09 17:33 140 2 gusting 4 12.2
2019-Dec-09 17:27 091 2 gusting 4 12.2
2019-Dec-09 17:22 116 2 gusting 4 12.2
2019-Dec-09 17:17 098 2 gusting 5 12.2
2019-Dec-09 17:12 124 2 gusting 5 12.2
2019-Dec-09 17:07 096 2 gusting 5 12.2
2019-Dec-09 17:02 129 1 gusting 3 12.2
2019-Dec-09 16:57 110 0 gusting 2 12.2
2019-Dec-09 16:52 281 12.2
2019-Dec-09 16:47 281 0 gusting 2 12.2
2019-Dec-09 16:42 281 0 gusting 2 12.2
2019-Dec-09 16:37 277 12.2
2019-Dec-09 16:32 147 12.2
2019-Dec-09 16:27 226 0 gusting 2 12.2
2019-Dec-09 16:22 214 0 gusting 3 12.2
2019-Dec-09 16:17 271 0 gusting 3 12.2
2019-Dec-09 16:12 175 12.2
2019-Dec-09 16:07 179 12.8
2019-Dec-09 16:02 141 12.8
2019-Dec-09 15:57 166 12.8
2019-Dec-09 15:52 115 0 gusting 0 12.8
2019-Dec-09 15:47 114 0 gusting 0 12.8
2019-Dec-09 15:42 124 12.8
2019-Dec-09 15:37 258 12.8
2019-Dec-09 15:32 258 12.8
2019-Dec-09 15:27 258 13.3
2019-Dec-09 15:22 258 0 gusting 1 13.3
2019-Dec-09 15:17 264 13.3
2019-Dec-09 15:12 232 13.3
2019-Dec-09 15:07 232 13.3
2019-Dec-09 15:02 232 13.9
2019-Dec-09 14:57 222 13.9
2019-Dec-09 14:52 221 13.9
2019-Dec-09 14:47 263 13.9
2019-Dec-09 14:42 280 0 gusting 1 14.4
2019-Dec-09 14:37 275 14.4
2019-Dec-09 14:32 271 0 gusting 2 14.4
2019-Dec-09 14:27 283 0 gusting 2 14.4
2019-Dec-09 14:22 296 0 gusting 2 14.4
2019-Dec-09 14:17 285 0 gusting 1 14.4
2019-Dec-09 14:12 283 0 gusting 1 14.4
2019-Dec-09 14:07 261 15.0
2019-Dec-09 14:02 256 15.0
2019-Dec-09 13:57 255 0 gusting 1 15.0
2019-Dec-09 13:52 263 0 gusting 1 14.4
2019-Dec-09 13:47 260 0 gusting 3 14.4
2019-Dec-09 13:42 274 0 gusting 3 14.4
2019-Dec-09 13:37 252 0 gusting 2 14.4
2019-Dec-09 13:32 286 1 gusting 3 14.4
2019-Dec-09 13:27 278 1 gusting 3 14.4
2019-Dec-09 13:22 231 1 gusting 3 14.4
2019-Dec-09 13:17 295 1 gusting 3 14.4
2019-Dec-09 13:12 290 1 gusting 3 14.4
2019-Dec-09 13:07 285 1 gusting 3 14.4
2019-Dec-09 13:02 300 1 gusting 4 14.4
2019-Dec-09 12:57 242 2 gusting 5 14.4
2019-Dec-09 12:52 254 2 gusting 5 13.9
2019-Dec-09 12:47 257 1 gusting 3 14.4
2019-Dec-09 12:42 294 1 gusting 3 13.9
2019-Dec-09 12:37 289 1 gusting 3 13.9
2019-Dec-09 12:32 283 1 gusting 3 13.9
2019-Dec-09 12:27 273 1 gusting 4 13.9
2019-Dec-09 12:22 229 2 gusting 4 13.9
2019-Dec-09 12:17 266 1 gusting 4 13.9
2019-Dec-09 12:12 296 1 gusting 4 13.3
2019-Dec-09 12:07 320 1 gusting 3 13.3
2019-Dec-09 12:02 264 2 gusting 3 13.3
2019-Dec-09 11:57 269 2 gusting 4 13.3
2019-Dec-09 11:52 272 1 gusting 4 13.3
2019-Dec-09 11:47 299 1 gusting 3 12.8
2019-Dec-09 11:42 225 2 gusting 4 12.8
2019-Dec-09 11:37 245 1 gusting 4 12.8
2019-Dec-09 11:32 287 1 gusting 3 12.2
2019-Dec-09 11:27 281 0 gusting 3 12.2
2019-Dec-09 11:22 288 0 gusting 2 12.2
2019-Dec-09 11:17 304 0 gusting 2 12.2
2019-Dec-09 11:12 295 1 gusting 4 12.2
2019-Dec-09 11:07 300 1 gusting 4 11.7
2019-Dec-09 11:02 314 1 gusting 3 11.7
2019-Dec-09 10:57 280 1 gusting 3 11.7
2019-Dec-09 10:52 281 0 gusting 2 11.7
2019-Dec-09 10:47 290 0 gusting 2 11.7
2019-Dec-09 10:42 278 0 gusting 2 11.7
2019-Dec-09 10:37 238 0 gusting 2 11.7
2019-Dec-09 10:32 288 11.7
2019-Dec-09 10:27 290 11.7
2019-Dec-09 10:22 293 11.1
2019-Dec-09 10:17 285 0 gusting 2 11.1
2019-Dec-09 10:12 288 0 gusting 2 11.1
2019-Dec-09 10:07 281 0 gusting 2 11.1
2019-Dec-09 10:02 307 0 gusting 3 11.1
2019-Dec-09 09:57 297 0 gusting 3 10.6
2019-Dec-09 09:52 311 0 gusting 2 10.6
2019-Dec-09 09:47 284 0 gusting 2 10.6
2019-Dec-09 09:42 097 1 gusting 4 10.6
2019-Dec-09 09:37 301 1 gusting 4 10.6
2019-Dec-09 09:32 280 1 gusting 3 10.6
2019-Dec-09 09:27 295 1 gusting 3 10.6
2019-Dec-09 09:22 271 0 gusting 2 10.0
2019-Dec-09 09:17 265 0 gusting 2 10.0
2019-Dec-09 09:12 264 1 gusting 4 10.0
2019-Dec-09 09:07 226 1 gusting 4 10.0
2019-Dec-09 09:02 287 0 gusting 2 10.0
2019-Dec-09 08:57 286 0 gusting 1 10.0
2019-Dec-09 08:52 283 0 gusting 1 9.4
2019-Dec-09 08:47 256 0 gusting 1 9.4
2019-Dec-09 08:42 273 9.4
2019-Dec-09 08:37 304 0 gusting 1 9.4
2019-Dec-09 08:32 304 0 gusting 1 9.4
2019-Dec-09 08:27 295 0 gusting 2 9.4
2019-Dec-09 08:22 285 0 gusting 2 10.0
2019-Dec-09 08:17 284 10.0
2019-Dec-09 08:12 252 10.0
2019-Dec-09 08:07 215 0 gusting 2 10.0
2019-Dec-09 08:02 269 0 gusting 3 10.0
2019-Dec-09 07:57 264 1 gusting 3 10.0
2019-Dec-09 07:52 214 1 gusting 3 10.0
2019-Dec-09 07:47 266 0 gusting 2 10.0
2019-Dec-09 07:42 287 10.0
2019-Dec-09 07:37 269 10.0
2019-Dec-09 07:32 096 10.0
2019-Dec-09 07:27 096 10.0
2019-Dec-09 07:22 096 10.0
2019-Dec-09 07:17 096 10.0
2019-Dec-09 07:12 096 10.0
2019-Dec-09 07:07 096 10.0
2019-Dec-09 07:02 161 10.0
2019-Dec-09 06:57 229 0 gusting 2 9.4
2019-Dec-09 06:52 230 0 gusting 2 9.4
2019-Dec-09 06:47 226 0 gusting 1 9.4
2019-Dec-09 06:42 268 0 gusting 0 9.4
2019-Dec-09 06:37 276 8.9
2019-Dec-09 06:32 244 8.9
2019-Dec-09 06:27 112 8.9
2019-Dec-09 06:22 112 8.3
2019-Dec-09 06:17 111 8.3
2019-Dec-09 06:12 113 8.3
2019-Dec-09 06:07 083 8.3
2019-Dec-09 06:02 083 8.3
2019-Dec-09 05:57 083 8.3
2019-Dec-09 05:52 082 8.3
2019-Dec-09 05:47 237 8.3
2019-Dec-09 05:42 237 8.9
2019-Dec-09 05:37 237 8.9
2019-Dec-09 05:32 289 8.3
2019-Dec-09 05:27 289 8.3
2019-Dec-09 05:22 289 8.3
2019-Dec-09 05:17 289 8.3
2019-Dec-09 05:12 289 8.3
2019-Dec-09 05:07 289 8.9
2019-Dec-09 05:02 287 8.3
2019-Dec-09 04:57 092 8.3
2019-Dec-09 04:52 092 8.3
2019-Dec-09 04:47 092 8.3
2019-Dec-09 04:42 092 8.3
2019-Dec-09 04:37 092 8.3
2019-Dec-09 04:32 092 8.3
2019-Dec-09 04:27 092 8.3
2019-Dec-09 04:22 092 8.3
2019-Dec-09 04:17 092 8.3
2019-Dec-09 04:12 092 7.8
2019-Dec-09 04:07 092 7.8
2019-Dec-09 04:02 092 7.8
2019-Dec-09 03:57 092 7.8
2019-Dec-09 03:52 092 8.3
2019-Dec-09 03:47 092 0 gusting 1 8.3
2019-Dec-09 03:42 086 0 gusting 1 8.3
2019-Dec-09 03:37 086 0 gusting 1 8.3
2019-Dec-09 03:32 101 0 gusting 1 8.3
2019-Dec-09 03:27 108 8.3
2019-Dec-09 03:22 139 8.3
2019-Dec-09 03:17 107 8.3
2019-Dec-09 03:12 105 7.8
2019-Dec-09 03:07 105 7.8
2019-Dec-09 03:02 105 7.8
2019-Dec-09 02:57 105 7.8
2019-Dec-09 02:52 105 8.3
2019-Dec-09 02:47 105 8.3
2019-Dec-09 02:42 105 8.3
2019-Dec-09 02:37 105 8.3
2019-Dec-09 02:32 105 8.3
2019-Dec-09 02:27 105 8.3
2019-Dec-09 02:22 105 8.9
2019-Dec-09 02:17 105 8.9
2019-Dec-09 02:12 105 8.9
2019-Dec-09 02:07 105 8.9
2019-Dec-09 02:02 105 8.9